Regional Weather Roundup
Issued by NWS

Home | Current Version | Previous Version | Text Only | Print | Product List | Glossary Off
Versions: 1 2 3 4 5 6 7 8 9 10 11 12 13 14 15 16 17 18 19 20 21 22 23 24 25 26 27 28 29 30 31 32 33 34 35 36 37 38 39 40 41 42 43 44 45 46 47 48 49 50

000
ASUS44 KMEG 302100
RWRTN
TENNESSEE HOURLY STATE WEATHER ROUNDUP
NATIONAL WEATHER SERVICE MEMPHIS TN
400 PM CDT THU JUL 30 2015

TNZ002-004-019-021-049-052-054-088>092-302200-
WEST TENNESSEE

CITY           SKY/WX    TMP DP  RH WIND       PRES   REMARKS
MEMPHIS INTL   MOSUNNY   91  61  36 N15       30.06F HX  91
NWS MEMPHIS      N/A     88 N/A N/A MISG        N/A
JACKSON        SUNNY     91  59  33 N14       30.07F HX  90
DYERSBURG        N/A    N/A N/A N/A MISG        N/A
PARIS          SUNNY     82  61  47 N10       30.11S
$$

TNZ008-025-027-028-033-062-065-066-302200-
NORTH MIDDLE TENNESSEE

CITY           SKY/WX    TMP DP  RH WIND       PRES   REMARKS
NASHVILLE      MOSUNNY   89  62  40 N9G23     30.06F
CLARKSVILLE    SUNNY     85  60  42 N13       30.08F
CROSSVILLE     SUNNY     85  62  46 N12       30.09F
$$

TNZ061-075-076-078-094-096-097-302200-
SOUTH MIDDLE TENNESSEE

CITY           SKY/WX    TMP DP  RH WIND       PRES   REMARKS
FAYETTEVILLE   SUNNY     88  57  35 NE10      30.04S
TULLAHOMA      SUNNY     86  59  39 N12       30.06F
WINCHESTER     SUNNY     88  63  42 N12       30.05R
MCMINNVILLE    SUNNY     84  68  58 NW9       30.06F
COLUMBIA       SUNNY     88  64  45 N8        30.05F
SHELBYVILLE    SUNNY     90  63  40 NW12      30.06F HX  90
$$

TNZ017-018-042-046-047-302200-
NORTHEAST TENNESSEE

CITY           SKY/WX    TMP DP  RH WIND       PRES   REMARKS
TRI CITIES     MOSUNNY   88  70  55 VRB7      29.99F HX  93
ELIZABETHTON   CLEAR     88  70  55 CALM      29.99F HX  92
$$

TNZ012-013-036-069-073-074-302200-
CENTRAL EAST TENNESSEE

CITY           SKY/WX    TMP DP  RH WIND       PRES   REMARKS
KNOXVILLE      PTSUNNY   89  70  53 NW9       29.98F HX  94
OAK RIDGE      MOSUNNY   93  67  42 VRB5      30.01F HX  96
GATLINBURG     CLOUDY    88  72  58 NW10      29.98S HX  94
$$

TNZ083-085-099-302200-
SOUTHEAST TENNESSEE

CITY           SKY/WX    TMP DP  RH WIND       PRES   REMARKS
CHATTANOOGA    PTSUNNY   91  73  55 N12       29.97F HX  99
$$

SKY/WX REPORTED AS FAIR MEANS FEW OR NO CLOUDS BELOW
12 THOUSAND FEET.




USA.gov is the U.S. government's official web portal to all federal, state and local government web resources and services.